This is the latest recevied weather packets stored in our database for station/object KA7EII-13. If no packets are shown the sender has not sent any weather packets the latest 10 day(s).
| Time | Temp. | Humidity | Pressure | Rain* | Wind** | Luminosity | Snow |
|---|---|---|---|---|---|---|---|
| 1778124568 | 15° C | 44% | 1104.7 hPa | 0 mm | - | 0 W/m² | - |
| 1778124265 | 15° C | 44% | 1104.4 hPa | 0 mm | - | 0 W/m² | - |
| 1778123961 | 15° C | 44% | 1104.7 hPa | 0 mm | - | 0 W/m² | - |
| 1778123658 | 15° C | 44% | 1104.6 hPa | 0 mm | - | 0 W/m² | - |
| 1778123354 | 15° C | 44% | 1104.6 hPa | 0 mm | - | 0 W/m² | - |
| 1778123052 | 14.44° C | 45% | 1104.7 hPa | 0 mm | - | 0 W/m² | - |
| 1778122749 | 14.44° C | 45% | 1104.8 hPa | 0 mm | - | 0 W/m² | - |
| 1778122446 | 14.44° C | 46% | 1104.6 hPa | 0 mm | - | 0 W/m² | - |
| 1778122144 | 14.44° C | 46% | 1104.6 hPa | 0 mm | - | 0 W/m² | - |
| 1778121841 | 15° C | 46% | 1104.8 hPa | 0 mm | - | 0 W/m² | - |
| 1778121537 | 15° C | 45% | 1104.4 hPa | 0 mm | - | 0 W/m² | - |
| 1778121234 | 15° C | 44% | 1104.5 hPa | 0 mm | - | 2 W/m² | - |
| 1778120931 | 15.56° C | 43% | 1104.6 hPa | 0 mm | - | 3 W/m² | - |
| 1778120628 | 15.56° C | 42% | 1104.6 hPa | 0 mm | - | 5 W/m² | - |
| 1778120323 | 15.56° C | 42% | 1104.5 hPa | 0 mm | - | 8 W/m² | - |
| 1778120019 | 15.56° C | 42% | 1104.7 hPa | 0 mm | - | 11 W/m² | - |
| 1778119717 | 16.11° C | 41% | 1104.5 hPa | 0 mm | - | 12 W/m² | - |
| 1778119413 | 16.11° C | 41% | 1104.6 hPa | 0 mm | - | 12 W/m² | - |
| 1778119111 | 16.11° C | 41% | 1104.6 hPa | 0 mm | - | 15 W/m² | - |
| 1778118808 | 16.67° C | 40% | 1104.7 hPa | 0 mm | - | 18 W/m² | - |
| 1778118500 | 16.67° C | 40% | 1104.5 hPa | 0 mm | - | 20 W/m² | - |
| 1778118197 | 16.67° C | 39% | 1104.6 hPa | 0 mm | - | 24 W/m² | - |
| 1778117893 | 16.67° C | 40% | 1104.5 hPa | 0 mm | - | 26 W/m² | - |
| 1778117590 | 16.67° C | 39% | 1104.5 hPa | 0 mm | - | 31 W/m² | - |
| 1778117287 | 16.67° C | 38% | 1104.7 hPa | 0 mm | - | 33 W/m² | - |
* Rain latest hour (hover to see other rain measurements)
** Current wind speed in m/s (hover to see current wind gust speed)